STARLINK-1413, 45689

Orbit data source: Space-Track

STARLINK-1413, 45689 is a payload satellite owned by SpaceX/Seattle (US) in LEO that was launched on Thu, 04 Jun 2020 UTC via an FALCON 9 launch vehicle from the Air Force Eastern Test Range (AFETR). Payload-class satellites include a variety of spacecraft equipped with specific instruments for various scientific and technological missions. These include communications satellites like Starlink; space stations such as the ISS; scientific satellites like the Hubble; Earth observation satellites from companies like Planet Labs, Umbra, and HawkEye 360; GPS; miniature CubeSats for education and research; and military/defense satellites.

Loading next visibility...
Identifier
45689, 2020-035AJ
Orbit
LEO
Country
Flag of USUS
Related business
Manufacturer
SpaceX/Seattle
Mission
Operational Commercial Communications
Bus & Motor
STARLINK, Unknown motor
Mass
260 kg wet, ~248 kg dry
Launch date (UTC)
2020-06-04 (5 years ago)
Launch vehicle
FALCON 9
Launch site
Air Force Eastern Test Range (AFETR)
Object type
Payload
Rocket body
Debris
Shape & HBR
Box + 1 Pan, 4.4 m
Radar Cross Section
13.562 m², Large (>1 m²)

Expand to show TLE details & history
Last TLE update: 18 hours ago

TLE from 18 hours ago
0 STARLINK-1413
1 45689U 20035AJ  25259.06236630  .00005331  00000-0  37628-3 0  9992
2 45689  53.0536 120.5486 0001278  91.6881 268.4254 15.06422300292460
Epoch: 2025-09-16T01:29Z
TLE epoch observation values (Epoch: 2025-09-16T01:29:48.448Z)
Latitude
-0.00004°
Longitude
102.83864°
Altitude
548.047 km
Speed
7.589 km/s
True Right ascension
08h 02m 11s
True Declination
0° 00' 00"
Sunlit
Object was in daylight at epoch
Visualization orbit readout
Latitude
Unknown
Longitude
Unknown
Altitude
Unknown
Speed
Unknown
Apparent Right ascension
Unknown
Apparent Declination
Unknown
Sunlit
N/A
Visualization observer readout
Local Sidereal Time
12:38:37
Azimuth
Unknown
Elevation
Unknown
Doppler factor
Unknown
Orbital elements
Apogee altitude
548.299 km
Perigee altitude
546.529 km
Semi-major axis
6,925.551 km
Eccentricity
0.00013
Inclination
53.0536°
RAAN
120.5486°
Arg. of periapsis
91.6881°
True anomaly
268.41076°
Mean anomaly
268.4254°
Eccentric anomaly
268.41808°
Mean motion
3.76584 °/min
Orbital period
95.6 mins
BSTAR
0.00037628
Loading maneuver chart data...
Computing Atmospheric mass density...

Documentation

Showing up to 5 results
|